Home > Weather > East Hants > Past weeks

Flag for Canada Past Weather in East Hants, Nova Scotia, Canada — Yesterday and Last 2 Weeks

Now
64 °F

Drizzle. Fog.


Feels Like: 64 °F
Forecast: 63 / 78 °F
Wind: 6 mph from South

Location: Halifax International Airport

Current Time: Jun 30, 2016 at 11:12:43 AM

Latest Report: Jun 30, 2016 at 10:00 AM


Visibility: 1 mi

Pressure: 29.91 "Hg

Humidity: 100%

Dew Point: 64 °F

Location of East HantsLocation

Past Weather in East Hants — Graph

°F

East Hants Temperature Yesterday

Maximum temperature yesterday: 68 °F (at 12:00 PM)
Minimum temperature yesterday: 63 °F (at 12:00 AM)
Average temperature yesterday: 64 °F

High & Low Weather Summary for the Past Weeks

 TemperatureHumidityPressure
High81 °F (Jun 19, 3:00 PM)100% (Jun 15, 11:00 PM)30.28 "Hg (Jun 15, 11:00 PM)
Low41 °F (Jun 17, 5:00 AM)21% (Jun 19, 12:00 PM)29.66 "Hg (Jun 15, 10:00 AM)
Average61 °F71%29.99 "Hg
* Reported Jun 15 10:00 AM — Jun 30 10:00 AM, East Hants, Weather by CustomWeather, © 2016

Note: Actual official high and low records may vary slightly from our data, if they occured in-between our weather recording intervals... More about our weather records

Advertising

East Hants Weather History for the Previous 24 Hours

Scroll right to see more
 ConditionsComfort  
Time TempWeatherWind HumidityBarometerVisibility
10:00 AM
Thu, Jun 30
64 °FDrizzle. Fog.6 mph100%29.91 "Hg1 mi
9:00 AM64 °FDrizzle. Fog.5 mph100%29.92 "Hg2 mi
8:00 AM63 °FFog.6 mph100%29.91 "Hg1 mi
7:54 AM63 °FFog.6 mph100%29.91 "Hg1 mi
7:00 AM63 °FSprinkles. Fog.6 mph100%29.93 "Hg1 mi
6:51 AM63 °FSprinkles. Fog.8 mph100%29.92 "Hg1 mi
6:00 AM63 °FFog.12 mph100%29.92 "Hg1 mi
5:00 AM63 °FMild.9 mph100%29.92 "Hg1 mi
4:00 AM63 °FSprinkles. Fog.8 mph100%29.94 "Hg0 mi
3:00 AM61 °FFog.9 mph100%29.95 "Hg0 mi
2:00 AM63 °FFog.8 mph100%29.96 "Hg0 mi
1:00 AM61 °FFog.7 mph100%29.98 "Hg0 mi
12:00 AM61 °FFog.9 mph100%29.99 "Hg0 mi
11:00 PM
Wed, Jun 29
63 °FFog.10 mph100%30.00 "Hg0 mi
10:00 PM64 °FFog.8 mph100%30.01 "Hg0 mi
9:00 PM63 °FFog.8 mph100%30.01 "Hg0 mi
8:00 PM64 °FDrizzle. Fog.9 mph100%29.99 "Hg1 mi
7:02 PM64 °FLight rain. Fog.10 mph100%30.00 "Hg1 mi
7:00 PM64 °FDrizzle. Fog.10 mph100%30.00 "Hg1 mi
6:00 PM68 °FLow clouds.10 mph94%30.00 "Hg12 mi
5:00 PM66 °FSprinkles. Low clouds.10 mph100%30.01 "Hg12 mi
4:00 PM68 °FLow clouds.15 mph100%30.03 "Hg8 mi
3:00 PM66 °FMild.7 mph100%30.04 "Hg1 mi
2:00 PM64 °FFog.9 mph100%30.06 "Hg1 mi
1:00 PM66 °FSprinkles. Fog.9 mph94%30.07 "Hg1 mi
12:00 PM68 °FSandstorm.10 mph94%30.08 "Hg2 mi
11:00 AM66 °FFog.9 mph100%30.07 "Hg2 mi
Weather by CustomWeather, © 2016

See weather overviewHow to use our weather pages